Location: Cheyres
(46.8153°N, 6.7877°E)
Time: 04:08:00
(UTC+00:00)

Okean 1-7 - Pass Details

Date: 11 May 2021
Orbit: 592 x 617 km, 82.5° (Epoch: 18 June)

Event Time Altitude Azimuth Distance (km) Brightness Sun altitude
Exits shadow 22:30:59 28° 75° (ENE) 1,126 4.3 -23.7°
Drops below altitude 10° 22:34:09 10° 30° (NNE) 1,943 6.2 -23.9°
Sets 22:36:34 0° 19° (NNE) 2,854 7.4 -24.0°
